Погода в Вирджиния-Бич

США     36°50′59″N   75°58′37″W
темп.,
°C
ветер,
м/с
пор.,
м/с
влажн.,
%
обл.,
%
осадки,
мм/ч
давл.,
гПа
погр.,
м
26 июня, вс
вс2623:00+20ююв379022 0.0 1021191
02:00+20ю24940 0.0 1021110
05:00+19ююз22953 0.0 102163
08:00+22юз12815 0.0 1022187
11:00+28юв224632 0.0 10211040
14:00+28юв544914 0.0 10201287
17:00+27ююв675613 0.0 1018722
20:00+23ююв61173100 0.0 1018363
27 июня, пн
пн2723:00+22ю5127514 0.0 1018435
02:00+21ююз41180100 0.0 1018401
05:00+20ююз41183100 0.0 1017377
08:00+23ююз51070100 0.0 1018497
11:00+28юз585595 0.0 1018906
14:00+28з4756100 0.1 1017995
17:00+23юв1287100 1.0 101794
20:00+21ююв2296100 4.2 101898
28 июня, вт
вт2823:00+21ю2396100 1.0 1019138
02:00+21з3798100 4.3 1019458
05:00+20ссв5987100 1.8 1020493
08:00+20ссв7106677 1.8 1022690
11:00+22ссв57495 0.0 1024846
14:00+24ссв444112 0.0 10241023
17:00+24св33435 0.0 1023849
20:00+20всв226097 0.0 1023102
29 июня, ср
ср2923:00+19вюв2366100 0.0 1024102
02:00+18ююв2370100 0.0 1024115
05:00+18ю1272100 0.0 102486
08:00+21сз0065100 0.0 1025153
11:00+26в214525 0.0 1025811
14:00+27юв54441 0.0 10251138
17:00+26ююв56460 0.0 1023630
20:00+22ююв48660 0.0 1023282
30 июня, чт
чт3023:00+20ю37870 0.0 1024177
02:00+20юз369510 0.0 1024155
05:00+20юз259712 0.0 1024128
08:00+23зюз23800 0.0 1024216
11:00+30юз13552 0.0 10231102
14:00+27в446388 0.0 1022545
17:00+27юв456252 0.0 1022439
20:00+24ююв487430 0.0 1022250